Regional Weather Roundup
Issued by NWS

Home | Current Version | Previous Version | Graphics & Text | Print | Product List | Glossary On
Versions: 1 2 3 4 5 6 7 8 9 10 11 12 13 14 15 16 17 18 19 20 21 22 23 24 25 26 27 28
000
ASUS45 KCYS 271910
RWRWY

WYOMING REGIONAL WEATHER ROUNDUP
NATIONAL WEATHER SERVICE CHEYENNE WY
100 PM MDT TUE JUN 27 2017

NOTE:  "FAIR" INDICATES FEW OR NO CLOUDS BELOW 12,000 FEET
WITH NO SIGNIFICANT WEATHER AND/OR OBSTRUCTIONS TO VISIBILITY.

WYZ001-272000-
YELLOWSTONE NATIONAL PARK

CITY           SKY/WX    TMP DP  RH WIND       PRES   REMARKS
LK YELLOWSTONE   N/A     49  44  83 CALM      30.13F
W YELLOWSTONE  NOT AVBL

$$
WYZ002>013-054>058-071-098>099-272000-
NORTHERN WYOMING

CITY           SKY/WX    TMP DP  RH WIND       PRES   REMARKS
JACKSON        PTSUNNY   59  48  67 W3        30.08R
CODY           CLOUDY    62  43  49 W17G36    29.90R HAZE
GREYBULL       FAIR      86  40  19 W16       29.74F
WORLAND        FAIR      84  40  21 W8        29.76F
SHERIDAN       FAIR      79  49  34 NW18G29   29.80S
BUFFALO        FAIR      70  47  43 N10       29.84R
GILLETTE       FAIR      83  43  24 NW12      29.78S
NEWCASTLE      FAIR      79  45  29 NW9G18    29.77F

$$
WYZ014>020-022>026-101>103-272000-
CENTRAL WYOMING

CITY           SKY/WX    TMP DP  RH WIND       PRES   REMARKS
BIG PINEY      FAIR      77  38  24 W20       30.03F
PINEDALE       FAIR      72  37  28 SW5       30.03F
DUBOIS         MOCLDY    54  36  50 N38G64    30.06R
LANDER         FAIR      81  37  20 SW16G22   29.89F
RIVERTON       FAIR      79  34  19 SW15G24   29.89F
CASPER         FAIR      83  38  20 NW15G28   29.86S
DOUGLAS        FAIR      90  38  16 NW13G26   29.81F

$$
WYZ021-027>030-104>119-272000-
SOUTHERN WYOMING

CITY           SKY/WX    TMP DP  RH WIND       PRES   REMARKS
EVANSTON       FAIR      75  41  29 W14G30    30.11S
KEMMERER         N/A     73  37  27 SW20G29   30.09F
FORT BRIDGER   PTCLDY    79  32  18 W17G29    30.11F
ROCK SPRINGS   FAIR      77  35  21 W13G24    30.05S
DIXON          FAIR      83  29  14 W17G31    30.05R
RAWLINS        FAIR      82  33  17 W20G31    30.01S
SARATOGA       FAIR      84  28  13 W17G28    30.03F
LARAMIE        FAIR      82  22  11 W26G37    29.99F
CHEYENNE       FAIR      84  39  20 S13       29.90F
TORRINGTON     FAIR      90  43  19 SE8       29.74F
PINE BLUFFS    FAIR      90  34  13 S9G17     29.84F

$$




USA.gov is the U.S. government's official web portal to all federal, state and local government web resources and services.